| time (UTC) | temp F | wind direction | speed knots | gust knots | rain 1hr in | rain 24hr in | rain mn in | humidity % | barometer mb |
| 20260504202527 | 76 | 200 | 3.5 | 7.8 | 0.00 | 0.00 | 0.00 | 38 | 1009.6 |
| 20260504202025 | 76 | 184 | 9.6 | 13.0 | 0.00 | 0.00 | 0.00 | 36 | 1009.4 |
| 20260504201522 | 76 | 179 | 2.6 | 5.2 | 0.00 | 0.00 | 0.00 | 38 | 1009.6 |
| 20260504201020 | 76 | 213 | 4.3 | 8.7 | 0.00 | 0.00 | 0.00 | 38 | 1009.5 |
| 20260504200516 | 76 | 264 | 3.5 | 6.1 | 0.00 | 0.00 | 0.00 | 37 | 1009.4 |
| 20260504200013 | 76 | 184 | 3.5 | 12.2 | 0.00 | 0.00 | 0.00 | 37 | 1009.8 |
| 20260504195509 | 75 | 214 | 3.5 | 6.1 | 0.00 | 0.00 | 0.00 | 38 | 1009.8 |
| 20260504195005 | 75 | 200 | 6.1 | 7.8 | 0.00 | 0.00 | 0.00 | 37 | 1009.9 |
| 20260504194501 | 75 | 196 | 2.6 | 7.0 | 0.00 | 0.00 | 0.00 | 39 | 1010.0 |
| 20260504193957 | 74 | 199 | 7.8 | 9.6 | 0.00 | 0.00 | 0.00 | 37 | 1010.1 |
| 20260504193455 | 74 | 178 | 4.3 | 6.1 | 0.00 | 0.00 | 0.00 | 38 | 1009.9 |
| 20260504192953 | 76 | 150 | 7.8 | 9.6 | 0.00 | 0.00 | 0.00 | 37 | 1010.0 |
| 20260504192450 | 76 | 165 | 10.4 | 13.0 | 0.00 | 0.00 | 0.00 | 36 | 1009.9 |
| 20260504191949 | 76 | 187 | 2.6 | 5.2 | 0.00 | 0.00 | 0.00 | 35 | 1010.0 |
| 20260504191447 | 77 | 192 | 4.3 | 8.7 | 0.00 | 0.00 | 0.00 | 36 | 1010.4 |
| 20260504190941 | 77 | 223 | 2.6 | 4.3 | 0.00 | 0.00 | 0.00 | 35 | 1010.1 |
| 20260504190438 | 76 | 172 | 4.3 | 8.7 | 0.00 | 0.00 | 0.00 | 35 | 1010.4 |
| 20260504185934 | 77 | 193 | 3.5 | 9.6 | 0.00 | 0.00 | 0.00 | 35 | 1010.2 |
| 20260504185432 | 76 | 156 | 4.3 | 5.2 | 0.00 | 0.00 | 0.00 | 35 | 1010.4 |
| 20260504184928 | 75 | 187 | 5.2 | 7.8 | 0.00 | 0.00 | 0.00 | 35 | 1010.4 |
| 20260504184424 | 76 | 228 | 4.3 | 7.8 | 0.00 | 0.00 | 0.00 | 35 | 1010.5 |
| 20260504183920 | 76 | 201 | 8.7 | 12.2 | 0.00 | 0.00 | 0.00 | 35 | 1010.7 |
| 20260504183417 | 75 | 194 | 4.3 | 13.9 | 0.00 | 0.00 | 0.00 | 35 | 1010.5 |
| 20260504182915 | 76 | 230 | 3.5 | 6.1 | 0.00 | 0.00 | 0.00 | 34 | 1011.0 |
| 20260504182412 | 77 | 207 | 4.3 | 7.0 | 0.00 | 0.00 | 0.00 | 34 | 1010.8 |
| 20260504181908 | 76 | 224 | 1.7 | 7.0 | 0.00 | 0.00 | 0.00 | 36 | 1010.9 |
| 20260504181406 | 76 | 158 | 3.5 | 6.1 | 0.00 | 0.00 | 0.00 | 36 | 1011.0 |
| 20260504180905 | 75 | 159 | 6.1 | 13.0 | 0.00 | 0.00 | 0.00 | 34 | 1011.1 |
| 20260504180403 | 75 | 194 | 4.3 | 8.7 | 0.00 | 0.00 | 0.00 | 34 | 1011.2 |
| 20260504175901 | 75 | 180 | 6.1 | 9.6 | 0.00 | 0.00 | 0.00 | 35 | 1011.3 |
| 20260504175357 | 75 | 186 | 0.0 | 4.3 | 0.00 | 0.00 | 0.00 | 36 | 1011.5 |
| 20260504174855 | 75 | 198 | 4.3 | 7.0 | 0.00 | 0.00 | 0.00 | 37 | 1011.5 |
| 20260504174352 | 74 | 180 | 8.7 | 9.6 | 0.00 | 0.00 | 0.00 | 35 | 1011.6 |
| 20260504173849 | 74 | 203 | 6.1 | 9.6 | 0.00 | 0.00 | 0.00 | 37 | 1011.5 |
| 20260504173346 | 75 | 204 | 4.3 | 13.0 | 0.00 | 0.00 | 0.00 | 36 | 1011.6 |
| 20260504172843 | 75 | 195 | 1.7 | 2.6 | 0.00 | 0.00 | 0.00 | 36 | 1011.5 |
| 20260504172340 | 75 | 246 | 2.6 | 7.0 | 0.00 | 0.00 | 0.00 | 36 | 1011.8 |
| 20260504171835 | 74 | 224 | 1.7 | 7.0 | 0.00 | 0.00 | 0.00 | 38 | 1011.8 |
| 20260504171333 | 73 | 181 | 2.6 | 4.3 | 0.00 | 0.00 | 0.00 | 38 | 1012.0 |
| 20260504170830 | 73 | 211 | 7.8 | 9.6 | 0.00 | 0.00 | 0.00 | 38 | 1012.1 |
| 20260504170327 | 73 | 193 | 7.0 | 9.6 | 0.00 | 0.00 | 0.00 | 38 | 1012.2 |
| 20260504160245 | 71 | 200 | 7.0 | 8.7 | 0.00 | 0.00 | 0.00 | 37 | 1012.9 |
| 20260504150710 | 68 | 185 | 6.1 | 7.8 | 0.00 | 0.00 | 0.00 | 39 | 1013.5 |
| 20260504150207 | 69 | 174 | 5.2 | 6.1 | 0.00 | 0.00 | 0.00 | 41 | 1013.5 |
| 20260504141136 | 63 | 179 | 0.9 | 6.1 | 0.00 | 0.00 | 0.00 | 50 | 1013.7 |
| 20260504140633 | 63 | 206 | 2.6 | 7.0 | 0.00 | 0.00 | 0.00 | 49 | 1013.9 |
| 20260504140129 | 63 | 169 | 2.6 | 8.7 | 0.00 | 0.00 | 0.00 | 49 | 1013.6 |
| 20260504130557 | 57 | 185 | 2.6 | 5.2 | 0.00 | 0.00 | 0.00 | 57 | 1014.5 |
| 20260504110445 | 45 | 222 | 0.0 | 0.0 | 0.00 | 0.00 | 0.00 | 89 | 1014.7 |
| 20260504100407 | 45 | 249 | 0.0 | 0.0 | 0.00 | 0.00 | 0.00 | 91 | 1014.7 |
| 20260504081800 | 46 | 250 | 0.0 | 0.0 | 0.00 | 0.00 | 0.00 | 86 | 1015.2 |
| 20260504081256 | 46 | 252 | 0.0 | 0.0 | 0.00 | 0.00 | 0.00 | 85 | 1015.0 |
| 20260504080753 | 46 | 252 | 0.0 | 0.0 | 0.00 | 0.00 | 0.00 | 83 | 1015.0 |
| 20260504080249 | 46 | 252 | 0.0 | 0.0 | 0.00 | 0.00 | 0.00 | 83 | 1015.1 |
| 20260504070217 | 46 | 273 | 0.9 | 0.9 | 0.00 | 0.00 | 0.00 | 81 | 1015.0 |
| 20260504060138 | 46 | 228 | 0.0 | 0.0 | 0.00 | 0.00 | 0.00 | 85 | 1015.4 |
| 20260504050606 | 45 | 221 | 0.0 | 0.0 | 0.00 | 0.00 | 0.00 | 86 | 1015.3 |
| 20260504050103 | 45 | 221 | 0.0 | 0.0 | 0.00 | 0.00 | 0.00 | 86 | 1015.3 |
| 20260504045600 | 45 | 221 | 0.0 | 0.0 | 0.00 | 0.00 | 0.00 | 86 | 1015.3 |
| 20260504045055 | 45 | 221 | 0.0 | 0.0 | 0.00 | 0.00 | 0.00 | 87 | 1015.6 |
| 20260504044553 | 45 | 221 | 0.0 | 0.0 | 0.00 | 0.00 | 0.00 | 87 | 1015.3 |
| 20260504044049 | 45 | 221 | 0.0 | 0.0 | 0.00 | 0.00 | 0.00 | 87 | 1015.5 |
| 20260504043547 | 45 | 221 | 0.0 | 0.0 | 0.00 | 0.00 | 0.00 | 86 | 1015.3 |
| 20260504043044 | 45 | 221 | 0.0 | 0.0 | 0.00 | 0.00 | 0.00 | 85 | 1015.2 |
| 20260504042541 | 45 | 221 | 0.0 | 0.0 | 0.00 | 0.00 | 0.00 | 85 | 1015.2 |
| 20260504042038 | 45 | 221 | 0.0 | 0.0 | 0.00 | 0.00 | 0.00 | 86 | 1015.0 |
| 20260504041533 | 45 | 221 | 0.0 | 0.0 | 0.00 | 0.00 | 0.00 | 86 | 1015.0 |
| 20260504041030 | 45 | 221 | 0.0 | 0.0 | 0.00 | 0.00 | 0.00 | 85 | 1015.3 |
| 20260504040527 | 45 | 221 | 0.0 | 0.0 | 0.00 | 0.00 | 0.00 | 85 | 1015.1 |
| 20260504040024 | 44 | 221 | 0.0 | 0.0 | 0.00 | 0.00 | 0.00 | 85 | 1014.9 |
| 20260504035521 | 44 | 221 | 0.0 | 0.0 | 0.00 | 0.00 | 0.00 | 85 | 1015.0 |
| 20260504035017 | 44 | 221 | 0.0 | 0.0 | 0.00 | 0.00 | 0.00 | 85 | 1015.1 |
| 20260504034515 | 44 | 221 | 0.0 | 0.0 | 0.00 | 0.00 | 0.00 | 85 | 1015.1 |
| 20260504034012 | 44 | 221 | 0.0 | 0.0 | 0.00 | 0.00 | 0.00 | 86 | 1015.2 |
| 20260504033510 | 44 | 221 | 0.0 | 0.0 | 0.00 | 0.00 | 0.00 | 86 | 1015.1 |
| 20260504033007 | 44 | 221 | 0.0 | 0.0 | 0.00 | 0.00 | 0.00 | 87 | 1015.1 |
| 20260504032503 | 44 | 221 | 0.0 | 0.0 | 0.00 | 0.00 | 0.00 | 87 | 1015.0 |
| 20260504032000 | 43 | 221 | 0.0 | 0.0 | 0.00 | 0.00 | 0.00 | 87 | 1015.2 |
| 20260504031457 | 43 | 221 | 0.0 | 0.0 | 0.00 | 0.00 | 0.00 | 87 | 1014.9 |
| 20260504030954 | 43 | 221 | 0.0 | 0.0 | 0.00 | 0.00 | 0.00 | 87 | 1015.1 |
| 20260504030451 | 43 | 221 | 0.0 | 0.0 | 0.00 | 0.00 | 0.00 | 87 | 1015.2 |
| 20260504025946 | 42 | 221 | 0.0 | 0.0 | 0.00 | 0.00 | 0.00 | 86 | 1015.1 |
| 20260504025444 | 43 | 221 | 0.0 | 0.0 | 0.00 | 0.00 | 0.00 | 86 | 1015.1 |
| 20260504024941 | 43 | 221 | 0.0 | 0.0 | 0.00 | 0.00 | 0.00 | 86 | 1014.9 |
| 20260504024438 | 43 | 221 | 0.0 | 0.0 | 0.00 | 0.00 | 0.00 | 85 | 1015.0 |
| 20260504023935 | 43 | 221 | 0.0 | 0.0 | 0.00 | 0.00 | 0.00 | 84 | 1015.1 |
| 20260504023431 | 43 | 221 | 0.0 | 0.0 | 0.00 | 0.00 | 0.00 | 84 | 1015.1 |
| 20260504022927 | 44 | 221 | 0.0 | 0.0 | 0.00 | 0.00 | 0.00 | 84 | 1015.0 |
| 20260504022423 | 44 | 221 | 0.0 | 0.0 | 0.00 | 0.00 | 0.00 | 84 | 1015.2 |
| 20260504021920 | 44 | 221 | 0.0 | 0.0 | 0.00 | 0.00 | 0.00 | 83 | 1015.1 |
| 20260504021417 | 45 | 221 | 0.0 | 0.0 | 0.00 | 0.00 | 0.00 | 82 | 1015.0 |
| 20260504020915 | 45 | 221 | 0.0 | 0.0 | 0.00 | 0.00 | 0.00 | 81 | 1015.0 |
| 20260504020411 | 45 | 221 | 0.0 | 0.0 | 0.00 | 0.00 | 0.00 | 81 | 1014.8 |
| 20260504015908 | 45 | 221 | 0.0 | 0.0 | 0.00 | 0.00 | 0.00 | 79 | 1014.9 |
| 20260504015404 | 46 | 221 | 0.0 | 0.0 | 0.00 | 0.00 | 0.00 | 78 | 1014.9 |
| 20260504014900 | 46 | 221 | 0.0 | 0.0 | 0.00 | 0.00 | 0.00 | 76 | 1014.6 |
| 20260504014356 | 46 | 221 | 0.0 | 0.0 | 0.00 | 0.00 | 0.00 | 76 | 1014.7 |
| 20260504013853 | 46 | 221 | 0.0 | 0.0 | 0.00 | 0.00 | 0.00 | 74 | 1014.5 |
| 20260504013351 | 47 | 221 | 0.0 | 0.0 | 0.00 | 0.00 | 0.00 | 73 | 1014.6 |
| 20260504012847 | 47 | 221 | 0.0 | 0.0 | 0.00 | 0.00 | 0.00 | 72 | 1014.6 |
| 20260504012345 | 47 | 220 | 0.0 | 0.0 | 0.00 | 0.00 | 0.00 | 72 | 1014.5 |
| 20260504011843 | 48 | 215 | 0.0 | 0.0 | 0.00 | 0.00 | 0.00 | 70 | 1014.5 |
| 20260504011339 | 48 | 302 | 0.0 | 0.0 | 0.00 | 0.00 | 0.00 | 66 | 1014.3 |
| 20260504010835 | 49 | 302 | 0.0 | 0.0 | 0.00 | 0.00 | 0.00 | 65 | 1014.4 |
| 20260504010331 | 49 | 303 | 0.0 | 0.0 | 0.00 | 0.00 | 0.00 | 63 | 1014.4 |
| 20260504005828 | 49 | 302 | 0.0 | 0.0 | 0.00 | 0.00 | 0.00 | 63 | 1014.2 |
| 20260504005324 | 49 | 275 | 0.0 | 0.0 | 0.00 | 0.00 | 0.00 | 61 | 1014.4 |
| 20260504004822 | 50 | 297 | 0.0 | 0.0 | 0.00 | 0.00 | 0.00 | 60 | 1014.1 |
| 20260504004320 | 50 | 297 | 0.0 | 0.0 | 0.00 | 0.00 | 0.00 | 59 | 1014.3 |
| 20260504003816 | 51 | 297 | 0.0 | 0.0 | 0.00 | 0.00 | 0.00 | 57 | 1014.2 |
| 20260504003313 | 51 | 305 | 0.0 | 0.0 | 0.00 | 0.00 | 0.00 | 55 | 1014.2 |
| 20260504002809 | 52 | 307 | 0.0 | 0.0 | 0.00 | 0.00 | 0.00 | 54 | 1014.0 |
| 20260504002306 | 52 | 308 | 0.0 | 0.0 | 0.00 | 0.00 | 0.00 | 53 | 1014.0 |
| 20260504001804 | 53 | 307 | 0.0 | 0.0 | 0.00 | 0.00 | 0.00 | 50 | 1014.0 |
| 20260504001301 | 54 | 307 | 0.0 | 0.0 | 0.00 | 0.00 | 0.00 | 49 | 1014.1 |
| 20260504000758 | 55 | 307 | 0.0 | 0.0 | 0.00 | 0.00 | 0.00 | 48 | 1014.0 |
| 20260504000254 | 56 | 307 | 0.0 | 0.9 | 0.00 | 0.00 | 0.00 | 45 | 1014.0 |
| 20260503235753 | 56 | 309 | 0.0 | 0.0 | 0.00 | 0.00 | 0.00 | 42 | 1013.9 |
| 20260503235250 | 57 | 309 | 0.0 | 0.0 | 0.00 | 0.00 | 0.00 | 39 | 1013.8 |
| 20260503234747 | 58 | 310 | 0.0 | 0.0 | 0.00 | 0.00 | 0.00 | 38 | 1014.0 |
| 20260503234245 | 58 | 302 | 0.0 | 0.0 | 0.00 | 0.00 | 0.00 | 37 | 1013.8 |
| 20260503233742 | 59 | 300 | 0.0 | 0.0 | 0.00 | 0.00 | 0.00 | 36 | 1013.9 |
| 20260503233238 | 60 | 298 | 0.0 | 0.0 | 0.00 | 0.00 | 0.00 | 37 | 1013.7 |
| 20260503232735 | 60 | 298 | 0.0 | 0.0 | 0.00 | 0.00 | 0.00 | 33 | 1013.7 |
| 20260503232232 | 61 | 299 | 0.0 | 0.0 | 0.00 | 0.00 | 0.00 | 33 | 1014.0 |
| 20260503231730 | 62 | 297 | 0.0 | 0.0 | 0.00 | 0.00 | 0.00 | 32 | 1013.8 |
| 20260503231227 | 62 | 301 | 0.0 | 0.9 | 0.00 | 0.00 | 0.00 | 30 | 1013.8 |
| 20260503230723 | 63 | 250 | 0.0 | 0.0 | 0.00 | 0.00 | 0.00 | 30 | 1013.6 |
| 20260503230220 | 64 | 325 | 0.0 | 0.9 | 0.00 | 0.00 | 0.00 | 29 | 1013.7 |
| 20260503225718 | 64 | 277 | 0.0 | 0.9 | 0.00 | 0.00 | 0.00 | 27 | 1013.7 |
| 20260503225218 | 64 | 339 | 0.0 | 1.7 | 0.00 | 0.00 | 0.00 | 28 | 1013.6 |
| 20260503224715 | 64 | 354 | 0.9 | 1.7 | 0.00 | 0.00 | 0.00 | 26 | 1013.5 |
| 20260503224213 | 65 | 258 | 0.0 | 0.9 | 0.00 | 0.00 | 0.00 | 26 | 1013.6 |
| 20260503223710 | 65 | 238 | 0.0 | 1.7 | 0.00 | 0.00 | 0.00 | 26 | 1013.7 |
| 20260503223207 | 64 | 346 | 0.9 | 4.3 | 0.00 | 0.00 | 0.00 | 26 | 1013.9 |
| 20260503222704 | 64 | 354 | 1.7 | 2.6 | 0.00 | 0.00 | 0.00 | 26 | 1013.8 |
| 20260503222202 | 64 | 327 | 0.0 | 0.9 | 0.00 | 0.00 | 0.00 | 27 | 1013.8 |
| 20260503221700 | 64 | 341 | 0.0 | 1.7 | 0.00 | 0.00 | 0.00 | 27 | 1013.7 |
| 20260503221157 | 64 | 73 | 1.7 | 5.2 | 0.00 | 0.00 | 0.00 | 28 | 1013.9 |
| 20260503220654 | 63 | 274 | 0.0 | 0.0 | 0.00 | 0.00 | 0.00 | 27 | 1013.7 |
| 20260503220150 | 64 | 339 | 1.7 | 1.7 | 0.00 | 0.00 | 0.00 | 27 | 1013.8 |
| 20260503215647 | 63 | 329 | 0.0 | 1.7 | 0.00 | 0.00 | 0.00 | 29 | 1013.9 |
| 20260503215144 | 64 | 2 | 3.5 | 6.1 | 0.00 | 0.00 | 0.00 | 26 | 1013.9 |
| 20260503214643 | 63 | 31 | 3.5 | 4.3 | 0.00 | 0.00 | 0.00 | 27 | 1014.1 |
| 20260503214138 | 64 | 295 | 0.9 | 0.9 | 0.00 | 0.00 | 0.00 | 29 | 1013.7 |
| 20260503213632 | 64 | 11 | 4.3 | 5.2 | 0.00 | 0.00 | 0.00 | 28 | 1013.7 |
| 20260503213128 | 64 | 6 | 1.7 | 1.7 | 0.00 | 0.00 | 0.00 | 27 | 1014.0 |
| 20260503212626 | 64 | 341 | 2.6 | 4.3 | 0.00 | 0.00 | 0.00 | 29 | 1014.0 |
| 20260503212123 | 64 | 338 | 0.0 | 2.6 | 0.00 | 0.00 | 0.00 | 28 | 1013.9 |
| 20260503211620 | 63 | 328 | 0.9 | 2.6 | 0.00 | 0.00 | 0.00 | 28 | 1013.8 |
| 20260503211116 | 64 | 254 | 0.9 | 4.3 | 0.00 | 0.00 | 0.00 | 29 | 1014.0 |
| 20260503210613 | 64 | 329 | 0.9 | 1.7 | 0.00 | 0.00 | 0.00 | 30 | 1014.2 |
| 20260503210109 | 65 | 198 | 2.6 | 5.2 | 0.00 | 0.00 | 0.00 | 28 | 1014.0 |
| 20260503205605 | 64 | 40 | 1.7 | 1.7 | 0.00 | 0.00 | 0.00 | 27 | 1014.2 |
| 20260503205101 | 65 | 264 | 2.6 | 5.2 | 0.00 | 0.00 | 0.00 | 28 | 1014.2 |
| 20260503204558 | 65 | 343 | 0.9 | 5.2 | 0.00 | 0.00 | 0.00 | 29 | 1014.3 |
| 20260503204056 | 65 | 306 | 0.9 | 1.7 | 0.00 | 0.00 | 0.00 | 29 | 1014.2 |
| 20260503203553 | 64 | 6 | 0.9 | 2.6 | 0.00 | 0.00 | 0.00 | 28 | 1014.2 |
| 20260503203050 | 64 | 357 | 0.9 | 1.7 | 0.00 | 0.00 | 0.00 | 28 | 1014.3 |